TimeCST,TemperatureF,Dew PointF,Humidity,Sea Level PressureIn,VisibilityMPH,Wind Direction,Wind SpeedMPH,Gust SpeedMPH,PrecipitationIn,Events,Conditions,WindDirDegrees,DateUTC
12:13 AM,1.4,-4.0,78,30.16,10.0,NW,11.5,-,N/A,,Clear,310,2013-02-15 06:13:00
12:33 AM,-0.4,-5.8,78,30.17,10.0,NW,11.5,-,N/A,,Clear,310,2013-02-15 06:33:00
12:54 AM,-0.4,-5.8,78,30.17,10.0,NW,10.4,-,N/A,,Clear,310,2013-02-15 06:54:00
1:13 AM,-0.4,-5.8,78,30.17,10.0,NW,9.2,-,N/A,,Clear,310,2013-02-15 07:13:00
1:33 AM,-2.2,-5.8,85,30.18,10.0,NW,9.2,-,N/A,,Clear,310,2013-02-15 07:33:00
1:54 AM,-2.2,-7.6,78,30.19,10.0,NW,9.2,-,N/A,,Clear,310,2013-02-15 07:54:00
2:13 AM,-2.2,-7.6,78,30.19,10.0,NW,9.2,-,N/A,,Clear,310,2013-02-15 08:13:00
2:33 AM,-4.0,-7.6,85,30.19,10.0,NW,8.1,-,N/A,,Clear,310,2013-02-15 08:33:00
2:54 AM,-5.8,-9.4,84,30.19,10.0,NW,5.8,-,N/A,,Clear,320,2013-02-15 08:54:00
3:13 AM,-7.6,-11.2,84,30.19,10.0,NW,3.5,-,N/A,,Clear,320,2013-02-15 09:13:00
3:33 AM,-7.6,-11.2,84,30.20,10.0,Calm,Calm,-,N/A,,Clear,0,2013-02-15 09:33:00
3:53 AM,-5.8,-9.4,84,30.20,10.0,NW,3.5,-,N/A,,Clear,320,2013-02-15 09:53:00
4:13 AM,-5.8,-9.4,84,30.20,10.0,NW,3.5,-,N/A,,Clear,310,2013-02-15 10:13:00
4:33 AM,-7.6,-9.4,92,30.20,10.0,WNW,8.1,-,N/A,,Clear,300,2013-02-15 10:33:00
4:54 AM,-5.8,-9.4,84,30.20,10.0,Calm,Calm,-,N/A,,Mostly Cloudy,0,2013-02-15 10:54:00
5:13 AM,-5.8,-9.4,84,30.21,10.0,NW,4.6,-,N/A,,Overcast,310,2013-02-15 11:13:00
5:33 AM,-4.0,-7.6,85,30.22,10.0,NW,8.1,-,N/A,,Overcast,310,2013-02-15 11:33:00
5:54 AM,-5.8,-9.4,84,30.22,10.0,WNW,9.2,-,N/A,,Scattered Clouds,300,2013-02-15 11:54:00
6:13 AM,-5.8,-9.4,84,30.22,10.0,WNW,9.2,-,N/A,,Scattered Clouds,300,2013-02-15 12:13:00
6:33 AM,-5.8,-9.4,84,30.23,10.0,WNW,10.4,-,N/A,,Mostly Cloudy,300,2013-02-15 12:33:00
6:53 AM,-5.8,-9.4,84,30.23,10.0,WNW,8.1,-,N/A,,Overcast,300,2013-02-15 12:53:00
7:13 AM,-5.8,-9.4,84,30.23,10.0,WNW,8.1,-,N/A,,Overcast,300,2013-02-15 13:13:00
7:33 AM,-5.8,-9.4,84,30.24,10.0,NW,8.1,-,N/A,,Overcast,310,2013-02-15 13:33:00
7:53 AM,-5.8,-9.4,84,30.24,10.0,WNW,9.2,-,N/A,,Overcast,300,2013-02-15 13:53:00
8:13 AM,-4.0,-9.4,78,30.25,5.0,WNW,9.2,-,N/A,,Haze,300,2013-02-15 14:13:00
8:33 AM,-4.0,-7.6,85,30.25,1.5,WNW,9.2,-,N/A,Snow,Light Snow,300,2013-02-15 14:33:00
8:54 AM,-2.2,-7.6,78,30.26,3.0,WNW,12.7,-,N/A,Snow,Light Snow,300,2013-02-15 14:54:00
9:13 AM,-2.2,-7.6,78,30.26,4.0,WNW,10.4,-,N/A,,Overcast,300,2013-02-15 15:13:00
9:33 AM,-2.2,-5.8,85,30.26,3.0,WNW,9.2,-,N/A,Snow,Light Snow,290,2013-02-15 15:33:00
9:54 AM,-0.4,-5.8,78,30.25,3.0,WNW,9.2,-,N/A,,Haze,300,2013-02-15 15:54:00
10:13 AM,1.4,-4.0,78,30.26,3.0,WNW,9.2,-,N/A,,Haze,300,2013-02-15 16:13:00
10:33 AM,1.4,-2.2,85,30.26,7.0,NW,8.1,-,N/A,,Overcast,310,2013-02-15 16:33:00
10:54 AM,3.2,-2.2,78,30.26,7.0,NW,8.1,-,N/A,,Overcast,310,2013-02-15 16:54:00
11:13 AM,5.0,-0.4,78,30.26,5.0,NW,5.8,-,N/A,,Haze,310,2013-02-15 17:13:00
11:54 AM,6.8,-0.4,72,30.25,7.0,Calm,Calm,-,N/A,,Overcast,0,2013-02-15 17:54:00
12:13 PM,6.8,1.4,79,30.24,3.0,North,3.5,-,N/A,Snow,Light Snow,350,2013-02-15 18:13:00
12:33 PM,8.6,1.4,73,30.23,5.0,NNW,6.9,-,N/A,,Haze,330,2013-02-15 18:33:00
12:54 PM,8.6,1.4,73,30.23,4.0,NNW,10.4,-,N/A,,Haze,330,2013-02-15 18:54:00
1:13 PM,10.4,3.2,73,30.22,3.0,WNW,9.2,-,N/A,,Haze,300,2013-02-15 19:13:00
1:33 PM,10.4,3.2,73,30.22,5.0,WNW,10.4,-,N/A,,Haze,300,2013-02-15 19:33:00
1:53 PM,10.4,3.2,73,30.22,10.0,NNW,8.1,-,N/A,,Overcast,340,2013-02-15 19:53:00
2:13 PM,10.4,3.2,73,30.21,3.0,NW,9.2,-,N/A,,Haze,320,2013-02-15 20:13:00
2:34 PM,10.4,3.2,73,30.21,4.0,NNW,8.1,-,N/A,,Haze,330,2013-02-15 20:34:00
2:53 PM,10.4,5.0,79,30.20,3.0,NNW,6.9,-,N/A,,Haze,330,2013-02-15 20:53:00
3:13 PM,10.4,5.0,79,30.21,2.0,NNW,9.2,-,N/A,Snow,Light Snow,330,2013-02-15 21:13:00
3:33 PM,10.4,6.8,85,30.21,1.0,NW,5.8,-,N/A,Snow,Light Snow,310,2013-02-15 21:33:00
3:53 PM,10.4,3.2,73,30.21,5.0,NW,10.4,-,N/A,,Haze,310,2013-02-15 21:53:00
4:13 PM,10.4,3.2,73,30.20,10.0,NW,13.8,-,N/A,,Overcast,320,2013-02-15 22:13:00
4:33 PM,10.4,3.2,73,30.21,10.0,NW,13.8,-,N/A,,Overcast,320,2013-02-15 22:33:00
4:53 PM,10.4,3.2,73,30.21,7.0,NW,13.8,-,N/A,,Overcast,320,2013-02-15 22:53:00
5:13 PM,10.4,3.2,73,30.21,7.0,NW,12.7,-,N/A,,Overcast,320,2013-02-15 23:13:00
5:34 PM,10.4,3.2,73,30.21,10.0,NNW,11.5,-,N/A,,Overcast,330,2013-02-15 23:34:00
5:53 PM,8.6,3.2,79,30.21,10.0,NNW,10.4,-,N/A,,Overcast,340,2013-02-15 23:53:00
6:14 PM,8.6,3.2,79,30.21,10.0,NNW,9.2,-,N/A,,Overcast,340,2013-02-16 00:14:00
6:33 PM,8.6,1.4,73,30.21,10.0,NNW,9.2,-,N/A,,Overcast,340,2013-02-16 00:33:00
6:54 PM,8.6,3.2,79,30.21,10.0,NNW,8.1,-,N/A,,Overcast,330,2013-02-16 00:54:00
7:13 PM,8.6,1.4,73,30.20,10.0,NW,6.9,-,N/A,,Overcast,320,2013-02-16 01:13:00
7:33 PM,8.6,1.4,73,30.20,10.0,NW,9.2,-,N/A,,Overcast,320,2013-02-16 01:33:00
7:54 PM,8.6,1.4,73,30.20,10.0,NW,8.1,-,N/A,,Overcast,320,2013-02-16 01:54:00
8:13 PM,6.8,1.4,79,30.19,10.0,NNW,3.5,-,N/A,,Overcast,340,2013-02-16 02:13:00
8:33 PM,6.8,-0.4,72,30.19,10.0,NW,5.8,-,N/A,,Overcast,310,2013-02-16 02:33:00
8:54 PM,6.8,-0.4,72,30.19,10.0,WNW,3.5,-,N/A,,Overcast,300,2013-02-16 02:54:00
9:13 PM,6.8,-0.4,72,30.19,10.0,WNW,3.5,-,N/A,,Scattered Clouds,290,2013-02-16 03:13:00
9:33 PM,3.2,-2.2,78,30.19,10.0,WNW,3.5,-,N/A,,Clear,290,2013-02-16 03:33:00
9:54 PM,5.0,-0.4,78,30.19,10.0,WNW,6.9,-,N/A,,Clear,290,2013-02-16 03:54:00
10:13 PM,3.2,-2.2,78,30.19,10.0,WNW,4.6,-,N/A,,Clear,300,2013-02-16 04:13:00
10:33 PM,1.4,-2.2,85,30.18,10.0,Calm,Calm,-,N/A,,Clear,0,2013-02-16 04:33:00
10:53 PM,1.4,-2.2,85,30.17,10.0,Calm,Calm,-,N/A,,Clear,0,2013-02-16 04:53:00
11:13 PM,-2.2,-5.8,85,30.17,10.0,Calm,Calm,-,N/A,,Clear,0,2013-02-16 05:13:00
11:33 PM,-0.4,-2.2,92,30.17,10.0,Calm,Calm,-,N/A,,Clear,0,2013-02-16 05:33:00
11:53 PM,-0.4,-2.2,92,30.16,10.0,Calm,Calm,-,N/A,,Clear,0,2013-02-16 05:53:00